Regional Weather Roundup
Issued by NWS

Home | Current Version | Previous Version | Graphics & Text | Print | Product List | Glossary On
Versions: 1 2 3 4 5 6 7 8 9 10 11 12 13 14 15 16 17 18 19 20 21 22 23 24 25 26 27 28 29 30 31 32 33 34 35 36 37 38 39 40 41 42 43 44 45 46 47 48 49 50
000
ASUS43 KTOP 260708
RWRKS

WEATHER ROUNDUP FOR KANSAS
NATIONAL WEATHER SERVICE GOODLAND KS
200 AM CDT MON JUN 26 2017

NOTE:  "FAIR" INDICATES FEW OR NO CLOUDS BELOW 12,000 FEET WITH NO
SIGNIFICANT WEATHER AND/OR OBSTRUCTIONS TO VISIBILITY.

KSZ001>006-013>018-027>032-041>047-260800-
NORTHWEST KANSAS

CITY           SKY/WX    TMP DP  RH WIND       PRES   REMARKS
GOODLAND       CLOUDY    57  57 100 S7        30.29F FOG
HAYS           CLOUDY    57  56  96 CALM      30.27S
HILL CITY      CLEAR     56  55  97 SW6       30.27F
RUSSELL        CLOUDY    58  55  90 CALM      30.24F
$$

KSZ061>065-074>080-084>089-260800-
SOUTHWEST KANSAS

CITY           SKY/WX    TMP DP  RH WIND       PRES   REMARKS
DODGE CITY     CLOUDY    60  57  89 E7        30.27R
ELKHART          N/A     60  49  67 E7          N/A
GARDEN CITY    CLOUDY    60  58  92 E6        30.27S
GREAT BEND     MOCLDY    60  56  86 CALM      30.26F
LIBERAL        CLOUDY    63  58  83 E10       30.26S
PRATT          CLOUDY    59  52  77 E7        30.25F
$$

KSZ066>073-081>083-090>101-260800-
SOUTHEAST KANSAS

CITY           SKY/WX    TMP DP  RH WIND       PRES   REMARKS
CHANUTE          N/A    N/A N/A N/A MISG      30.24F
COFFEYVILLE    PTCLDY    64  58  80 CALM      30.22S
HUTCHINSON     CLOUDY    60  54  80 NE3       30.24F
MEDICINE LODGE   N/A     63  55  75 E6        30.24R
NEWTON         CLOUDY    60  55  83 E5        30.25F
PARSONS        CLOUDY    65  55  70 CALM      30.23F
WICHITA INTL   CLOUDY    64  55  72 E6        30.23S
WICHITA JABRA  CLOUDY    60  56  86 NE3       30.23S
WICHITA MCCONL CLOUDY    63  53  67 E8        30.23S
WINFIELD       PTCLDY    64  54  69 E8        30.23S
$$

KSZ007>012-019>026-033>040-048>060-102>105-260800-
NORTHEAST KANSAS

CITY           SKY/WX    TMP DP  RH WIND       PRES   REMARKS
CONCORDIA      CLOUDY    57  53  86 W3        30.24S
EMPORIA        CLOUDY    61  59  93 NE3       30.25F
LAWRENCE       PTCLDY    53  53 100 SE5       30.23F
MANHATTAN      MOCLDY    59  57  93 W3        30.23F
MARYSVILLE     CLEAR     54  52  94 S3        30.22F
OLATHE IND     MOCLDY    56  54  93 CALM      30.25F
OLATHE EXE     PTCLDY    55  53  93 CALM      30.24F
SALINA         CLOUDY    62  58  86 S6        30.24F
TOPEKA BILLARD CLEAR     56  56 100 CALM      30.23F
TOPEKA FORBES  PTCLDY    56  55  97 CALM      30.23F
$$




USA.gov is the U.S. government's official web portal to all federal, state and local government web resources and services.